Showing default

AZERSPACE 2/INTELSAT 38, 43632

Orbit data source: Space-Track

AZERSPACE 2/INTELSAT 38, 43632 is a payload satellite owned by Azerkosmos (AZ) in GEO that was launched on Tue, 25 Sep 2018 UTC via an ARIANE 5ECA launch vehicle from the French Guiana (FRGUI). Payloads include a variety of satellites, spacecraft, and rockets equipped with specific instruments for various scientific and technological missions. These include communications satellites like Starlink; space stations such as the ISS; scientific satellites like the Hubble; Earth observation satellites from companies like Planet Labs, Umbra, and HawkEye 360; GPS; miniature CubeSats for education and research; and military/defense satellites.

Not visible in the next 10 days
AZERSPACE 2/INTELSAT 38 details
Identifier
43632, 2018-074A
Orbit
GEO
Last TLE update14 hours ago
Origin
Flag of AZAzerkosmos (AZ / AZER)
ManufacturerMaxar SSL
MissionOperational Civil Communications
Bus & MotorSSL-1300, R-4D
Mass3,500 kg wet, ~2,000 kg dry
Launch date (UTC)
2018-09-25 (6 years ago)
Launch vehicle
ARIANE 5ECA
Launch site
French Guiana (FRGUI)
Object type
Payload
Rocket body
Debris
Shape & HBRBox + 2 Pan, 27 m
Radar Cross Section36.085 m², Large (>1 m²)

Expand to show TLE details & history

TLE from 14 hours ago
0 AZERSPACE 2/INTELSAT 38
1 43632U 18074A   24339.88472463  .00000157  00000-0  00000-0 0  9994
2 43632   0.0173   7.1354 0001221 250.6878 179.9948  1.00271386 22833
Epoch: 2024-12-04T21:14Z
Definitive object data (Epoch: 2024-12-04T21:14:00.208Z)
Latitude0.037°
Longitude45.11949°
Altitude35,791.365 km
Speed3.074 km/s
True Right ascension05h 11m 10s
True Declination0° 02' 13"
Sunlit
Object was in daylight at TLE epoch
Visualization TLE readout
Latitude-0.03439°
Longitude-106.37487°
Altitude35,781.582 km
Speed3.075 km/s
Apparent Right ascension19h 17m 11s
Apparent Declination-5° 02' 12"
Sunlit
Object is in daylight
Visualization observer readout
Local Sidereal Time09:04:13
Azimuth41.696° NE
Elevation-47.608°
Doppler factor1
Orbital elements
Apogee altitude35,792.926 km
Perigee altitude35,782.629 km
Semi-major axis42,165.914 km
Eccentricity0.0001221
Inclination0.0173°
RAAN7.1354°
Arg. of periapsis250.6878°
True anomaly179.9948°
Mean anomaly179.9948°
Eccentric anomaly179.9948°
Mean motion0.25067 °/min
BSTARUnknown
Orbital period1436.16 mins
Loading historical data...
43632 neighbors
Authenticating...
Loading maneuver chart data...
Loading historical data...
Loading historical data...
Loading historical data...
Loading historical data...
Loading historical data...
Loading historical data...
Loading historical data...
Other satellites on launch #74 in the year 2018 (2018-09-25 UTC)

AZERSPACE 2/INTELSAT 38 Visibility forecast

Observer location: undefined°, undefined

AZERSPACE 2/INTELSAT 38 is not visible in the next 10 days
Span
Click to sort rows by Start time (UTC) header in descending order
Start Az.
Max El. time (UTC)
Max El. Az.
Max El.
End time (UTC)
End Az.
|